Tracking 31027 objects as of 19-Jul-2025
HD Live streaming from Space Station
objects crossing your sky now

STARLINK-4325

Track STARLINK-4325 now!
10-day predictions
STARLINK-4325 is classified as:


NORAD ID: 53068
Int'l Code: 2022-077AB
Perigee: 567.9 km
Apogee: 572.4 km
Inclination: 97.7 °
Period: 95.9 minutes
Semi major axis: 6941 km
RCS: Unknown
Launch date: July 11, 2022
Source: United States (US)
Launch site: AIR FORCE WESTERN TEST RANGE (AFWTR)
Your satellite tracking list
GALASSIA
Track 1 satellite(s)




NASA's NSSDC Master Catalog

Two Line Element Set (TLE):
1 53068U 22077AB  25199.92813072  .00000583  00000-0  49977-4 0  9994
2 53068  97.6594  21.0721 0003227  84.4492 275.7100 15.01261411165840
Source of the keplerian elements: AFSPC